User: anonymous   Login
Location: Unspecified
(0.0000°N, 0.0000°E)
Time: 08:27:13
(UTC+00:00)
Language:

USA 207 - Orbit

View from above orbital plane
View from above orbital plane
View from above satellite
View from above satellite

Ground track
Ground track

The orbit data is extracted from the following two-line orbital elements,

1 35815U 09047A   15132.05400598 0.00000000  00000-0  00000-0 0    08
2 35815   0.0785 296.6208 0003453 295.2419  64.7271  1.00270000    01
Epoch (UTC): 12 May 2015 01:17:46
Eccentricity: 0.0003453
inclination: 0.0785°
perigee height: 35772 km
apogee height: 35801 km
right ascension of ascending node: 296.6208°
argument of perigee: 295.2419°
revolutions per day: 1.00270000
mean anomaly at epoch: 64.7271°
orbit number at epoch: 0

The dashed part of the orbit path shows where the satellite is in the earth's shadow,  

DLR